Simultaneous Nadir Overpasses (SNOs) Predictions

Prediction of SNOs between AQUA and METOP-B Satellite Orbit:

Table of predicted SNOs for the next 14.0 days since TLE Epoch: 12/25/2021
Index Date (AQUA) Time (AQUA) Lat,Lon (AQUA) SZA (AQUA ) Date (METOP-B) Time (METOP-B) Lat,Lon (METOP-B) SZA (METOP-B ) Distance(km) Time Diff (sec)
1 12/25/2021 13:34:07 73.79, -29.16 97.15 12/25/2021 13:33:30 73.77, -29.19 97.14 2.17 37
2 12/25/2021 14:23:34 -73.86, 138.33 82.79 12/25/2021 14:24:10 -73.84, 138.30 82.81 2.34 36
3 12/28/2021 09:08:24 73.80, 37.26 97.05 12/28/2021 09:07:51 73.78, 37.24 97.04 2.31 33
4 12/28/2021 09:57:51 -73.86,-155.24 82.89 12/28/2021 09:58:31 -73.85,-155.27 82.90 1.60 40
5 12/31/2021 04:42:39 73.78, 103.74 96.86 12/31/2021 04:42:11 73.78, 103.66 96.87 2.53 28
6 12/31/2021 05:32:06 -73.84, -88.75 83.08 12/31/2021 05:32:51 -73.86, -88.84 83.07 3.34 45
7 01/03/2022 00:16:55 73.78, 170.17 96.63 01/03/2022 00:16:32 73.78, 170.06 96.64 3.41 23
8 01/03/2022 01:06:23 -73.89, -22.42 83.26 01/03/2022 01:07:12 -73.86, -22.42 83.29 3.17 49
9 01/05/2022 19:01:33 -73.24, 70.14 84.24 01/05/2022 19:00:25 -73.18, 67.78 84.20 75.97 68
10 01/05/2022 19:51:11 73.81,-123.43 96.37 01/05/2022 19:50:52 73.82,-123.42 96.39 2.19 19
11 01/05/2022 20:40:38 -73.86, 44.09 83.59 01/05/2022 20:41:33 -73.86, 43.99 83.59 3.37 55



Historial Predications of SNOs between AQUA and METOP-B
